Starlink 4101

operational
NORAD ID: 53142 Int'l Des: 2022-083 Owner: SPXS Country: US Constellation: starlink
LEOCIRCULAR

Über Starlink 4101

Beschreibung wird geladen...

Live-Position

3D-Globus wird geladen...

Nächste Überflüge

Höhenverlauf

Altitude vs Time

uPlot chart will show altitude changes over time

Zweizeiliger Elementsatz

1 53142U 22083L 26036.92453938 .00001465 00000-0 11012-3 0 9994
2 53142 53.2206 316.6899 0001526 115.4144 244.7006 15.08840232196430
Epoch: 5. Feb. 2026 • Age: 8 hours

Aktueller Status

Höhe 540.3 km
Geschwindigkeit 7.60 km/s
Subsatellitenpunkt 20.78°N, 101.37°E
Startdatum 17. Juli 2022
Alter 3.5 years
Typ internet

Technische Details

Klassifizierung Payload
Masse 297.00 kg
Trockenmasse 275.00 kg
Gesamtmasse 297.00 kg
Länge 0.20 m
Durchmesser 2.80 m
Spannweite 9.00 m
Form Box + pan
Hersteller SPXS
Bus-Typ Starlink
Phasenstatus In Orbit
Besitzer/Staat SPXS/US

Große Konstellationen

Loading constellations...